Location: *
(49.0044°N, 9.5056°E)
Time: 03:30:21
(UTC+00:00)

Cosmos 405 Rocket - Pass Details

Date: 22 September 2019
Orbit: 491 x 554 km, 81.3° (Epoch: 19 October)

Event Time Altitude Azimuth Distance (km) Brightness Sun altitude
Rises 18:31:20 0° 178° (S) 2,557 6.1 -12.3°
Reaches altitude 10° 18:33:27 10° 174° (S) 1,683 5.1 -12.6°
Maximum altitude 18:37:02 53° 97° (E) 618 2.7 -13.2°
Drops below altitude 10° 18:40:42 10° 20° (NNE) 1,715 5.3 -13.7°
Sets 18:42:52 0° 16° (NNE) 2,612 6.3 -14.1°
